Home   Weather   Wheaton   Past weeks
Flag for USA

Past Weather in Wheaton, Illinois, USA — Yesterday and Last 2 Weeks

Now
55 °F

Sunny.


Feels Like: 49 °F
Forecast: 51 / 41 °F
Wind: 29 mph from Northeast

Location: Dupage Airport

Current Time: Apr 19, 2019 at 3:35:57 pm

Latest Report: Apr 19, 2019 at 1:52 pm


Visibility: 10 mi

Pressure: 29.83 "Hg

Humidity: 42%

Dew Point: 32 °F

Location of WheatonLocation

Past Weather in Wheaton — Graph

°F

Wheaton Temperature Yesterday

Maximum temperature yesterday: 66 °F (at 12:52 am)
Minimum temperature yesterday: 45 °F (at 8:52 pm)
Average temperature yesterday: 52 °F

High & Low Weather Summary for the Past Weeks

 TemperatureHumidityPressure
High76 °F (Apr 17, 2:52 pm)100% (Apr 14, 10:52 am)30.29 "Hg (Apr 14, 10:52 am)
Low26 °F (Apr 15, 4:52 am)21% (Apr 8, 4:52 pm)29.52 "Hg (Apr 11, 8:34 pm)
Average49 °F70%29.88 "Hg
* Reported Apr 4 1:52 pm — Apr 19 1:52 pm, Wheaton. Weather by CustomWeather, © 2019

Note: Actual official high and low records may vary slightly from our data, if they occured in-between our weather recording intervals... More about our weather records

Advertising

Wheaton Weather History for the Previous 24 Hours

Scroll right to see more
 ConditionsComfort  
Time TempWeatherWind HumidityBarometerVisibility
1:52 pm
Fri, Apr 19
55 °FSunny.29 mph42%29.83 "Hg10 mi
12:52 pm53 °FScattered clouds.26 mph48%29.83 "Hg10 mi
11:52 am51 °FPartly sunny.30 mph52%29.84 "Hg10 mi
10:52 am49 °FScattered clouds.29 mph57%29.86 "Hg10 mi
9:52 am49 °FScattered clouds.21 mph61%29.84 "Hg10 mi
8:52 am44 °FPartly sunny.25 mph68%29.82 "Hg10 mi
7:52 am43 °FOvercast.21 mph71%29.82 "Hg10 mi
6:52 am43 °FOvercast.22 mph71%29.80 "Hg10 mi
5:52 am43 °FOvercast.23 mph74%29.78 "Hg10 mi
4:52 am43 °FMostly cloudy.22 mph76%29.76 "Hg10 mi
3:52 am44 °FOvercast.18 mph71%29.76 "Hg10 mi
3:07 am44 °FMostly cloudy.17 mph71%29.74 "Hg10 mi
1:52 am44 °FMostly cloudy.15 mph71%29.77 "Hg10 mi
1:29 am45 °FMostly cloudy.14 mph68%29.77 "Hg10 mi
1:06 am45 °FMostly cloudy.15 mph71%29.79 "Hg10 mi
12:52 am45 °FMostly cloudy.14 mph74%29.79 "Hg10 mi
12:02 am45 °FOvercast.15 mph74%29.77 "Hg10 mi
11:26 pm
Thu, Apr 18
45 °FOvercast.14 mph76%29.77 "Hg10 mi
10:52 pm45 °FOvercast.12 mph76%29.77 "Hg10 mi
9:52 pm45 °FPassing clouds.15 mph74%29.77 "Hg10 mi
9:38 pm45 °FMostly cloudy.15 mph74%29.76 "Hg10 mi
8:52 pm45 °FMostly cloudy.13 mph74%29.78 "Hg10 mi
8:25 pm46 °FOvercast.14 mph71%29.78 "Hg10 mi
7:52 pm46 °FMostly cloudy.10 mph71%29.78 "Hg10 mi
6:52 pm46 °FOvercast.14 mph71%29.76 "Hg10 mi
5:52 pm48 °FOvercast.16 mph71%29.75 "Hg10 mi
4:52 pm49 °FMostly cloudy.12 mph71%29.70 "Hg10 mi
3:52 pm48 °FOvercast.14 mph77%29.68 "Hg10 mi
Weather by CustomWeather, © 2019

See weather overview